Find Starlink 6096

NORAD ID: 56103 Int'l Des: 2023-046 Owner: SPXS Country: US Constellation: starlink operational
LEOCIRCULAR

Live-Position

3D-Globus wird geladen...

Über Starlink 6096

Beschreibung wird geladen...

Nächste Überflüge

Passes for default location (London). Set your location on the main map for personalized predictions.

Höhenverlauf

Loading altitude history...

Zweizeiliger Elementsatz

1 56103U 23046L 26121.32399549 .00059224 00000-0 21682-2 0 9999
2 56103 43.0006 224.0943 0001104 175.1534 184.9328 15.27218393170088
Epoch: 1. Mai 2026 • Age: 21 hours

Aktueller Status

Höhe 490.7 km
Geschwindigkeit 7.62 km/s
Subsatellitenpunkt -28.50°S, 136.95°E
Startdatum 29. März 2023
Alter 3 years
Typ internet

Technische Details

Klassifizierung Payload
Masse 305.00 kg
Trockenmasse 290.00 kg
Gesamtmasse 305.00 kg
Länge 0.20 m
Durchmesser 2.80 m
Spannweite 9.00 m
Form Box + pan
Hersteller SPXS
Bus-Typ Starlink
Phasenstatus In Orbit
Besitzer/Staat SPXS/US

Most Searched